,,,PA_Meas_PMT16A,,PR_Meas_QMR101_102,,RH_Meas_QMH101,,SR_Meas_QMS101,,TA_Meas_QMH101,,GenWind,,GenWind,
date,time,status,PA,status,PR,status,RH,status,SR,status,TA,status,DirAvg,status,SpdAvg,
2009-09-08, 00:00:05,VALID,1001.74,VALID,0,VALID,88.4883,VALID,0,VALID,22.9988,VALID,19,VALID,0.409766,
2009-09-08, 00:01:05,VALID,1001.74,VALID,0,VALID,88.5417,VALID,0,VALID,22.9793,VALID,19,VALID,0.358984,
2009-09-08, 00:02:04,VALID,1001.75,VALID,0,VALID,88.8546,VALID,0,VALID,22.9598,VALID,15,VALID,0.305469,
2009-09-08, 00:03:04,VALID,1001.77,VALID,0,VALID,89.0148,VALID,0,VALID,22.9598,VALID,15,VALID,0.362109,
2009-09-08, 00:04:04,VALID,1001.72,VALID,0,VALID,89.2666,VALID,0,VALID,22.9598,VALID,15,VALID,0.535156,
2009-09-08, 00:05:04,VALID,1001.72,VALID,0,VALID,89.3047,VALID,0,VALID,22.9793,VALID,15,VALID,0.596875,
2009-09-08, 00:06:04,VALID,1001.71,VALID,0,VALID,89.3047,VALID,0,VALID,22.9598,VALID,15,VALID,0.683984,
2009-09-08, 00:07:04,VALID,1001.7,VALID,0,VALID,89.3505,VALID,0,VALID,22.9208,VALID,14,VALID,0.758984,
2009-09-08, 00:08:04,VALID,1001.7,VALID,0,VALID,89.3734,VALID,0,VALID,22.9013,VALID,9,VALID,0.85,
2009-09-08, 00:09:04,VALID,1001.7,VALID,0,VALID,89.4878,VALID,0,VALID,22.9013,VALID,358,VALID,0.876562,
2009-09-08, 00:10:04,VALID,1001.67,VALID,0,VALID,89.4878,VALID,0,VALID,22.9013,VALID,5,VALID,1.06445,
2009-09-08, 00:11:04,VALID,1001.68,VALID,0,VALID,89.7777,VALID,0,VALID,22.8623,VALID,12,VALID,1.16758,
2009-09-08, 00:12:04,VALID,1001.68,VALID,0,VALID,89.7854,VALID,0,VALID,22.8835,VALID,14,VALID,1.00742,
2009-09-08, 00:13:04,VALID,1001.7,VALID,0,VALID,89.6557,VALID,0,VALID,22.8623,VALID,14,VALID,0.829297,
2009-09-08, 00:14:04,VALID,1001.68,VALID,0,VALID,89.7472,VALID,0,VALID,22.8623,VALID,13,VALID,0.794922,
2009-09-08, 00:15:04,VALID,1001.72,VALID,0,VALID,89.5031,VALID,0,VALID,22.8232,VALID,8,VALID,0.535547,
2009-09-08, 00:16:04,VALID,1001.69,VALID,0,VALID,89.5183,VALID,0,VALID,22.7842,VALID,7,VALID,0.467578,
2009-09-08, 00:17:04,VALID,1001.71,VALID,0,VALID,89.4649,VALID,0,VALID,22.7842,VALID,7,VALID,0.583984,
2009-09-08, 00:18:04,VALID,1001.65,VALID,0,VALID,89.5565,VALID,0,VALID,22.724,VALID,12,VALID,0.933203,
2009-09-08, 00:19:04,VALID,1001.67,VALID,0,VALID,89.8998,VALID,0,VALID,22.7452,VALID,24,VALID,0.821094,
2009-09-08, 00:20:04,VALID,1001.64,VALID,0,VALID,90.0066,VALID,0,VALID,22.7452,VALID,38,VALID,0.886719,
2009-09-08, 00:21:04,VALID,1001.63,VALID,0,VALID,89.8693,VALID,0,VALID,22.7647,VALID,52,VALID,1.11406,
2009-09-08, 00:22:04,VALID,1001.62,VALID,0,VALID,90.2203,VALID,0,VALID,22.7452,VALID,52,VALID,0.845312,
2009-09-08, 00:23:04,VALID,1001.57,VALID,0,VALID,89.8998,VALID,0,VALID,22.7452,VALID,40,VALID,0.997656,
2009-09-08, 00:24:04,VALID,1001.6,VALID,0,VALID,89.6404,VALID,0,VALID,22.6672,VALID,36,VALID,0.727344,
2009-09-08, 00:25:04,VALID,1001.57,VALID,0,VALID,89.9303,VALID,0,VALID,22.6282,VALID,36,VALID,0.996094,
2009-09-08, 00:26:04,VALID,1001.57,VALID,0,VALID,90.5026,VALID,0,VALID,22.6087,VALID,36,VALID,0.863281,
2009-09-08, 00:27:04,VALID,1001.57,VALID,0,VALID,90.3576,VALID,0,VALID,22.6087,VALID,43,VALID,0.763281,
2009-09-08, 00:28:04,VALID,1001.51,VALID,0,VALID,90.6399,VALID,0,VALID,22.5909,VALID,44,VALID,1.10508,
2009-09-08, 00:29:04,VALID,1001.52,VALID,0,VALID,90.6704,VALID,0,VALID,22.5714,VALID,51,VALID,1.12383,
2009-09-08, 00:30:04,VALID,1001.5,VALID,0,VALID,90.7696,VALID,0,VALID,22.5909,VALID,61,VALID,0.98125,
2009-09-08, 00:31:04,VALID,1001.49,VALID,0,VALID,90.8154,VALID,0,VALID,22.5909,VALID,60,VALID,1.02695,
2009-09-08, 00:32:04,VALID,1001.44,VALID,0,VALID,90.7391,VALID,0,VALID,22.6121,VALID,59,VALID,0.885547,
2009-09-08, 00:33:04,VALID,1001.49,VALID,0,VALID,90.678,VALID,0,VALID,22.5714,VALID,60,VALID,0.773438,
2009-09-08, 00:34:04,VALID,1001.47,VALID,0,VALID,90.823,VALID,0,VALID,22.5714,VALID,60,VALID,0.630078,
2009-09-08, 00:35:04,VALID,1001.47,VALID,0,VALID,90.8154,VALID,0,VALID,22.5714,VALID,60,VALID,0.612891,
2009-09-08, 00:36:04,VALID,1001.45,VALID,0,VALID,90.8383,VALID,0,VALID,22.5714,VALID,60,VALID,0.641406,
2009-09-08, 00:37:04,VALID,1001.44,VALID,0,VALID,90.8459,VALID,0,VALID,22.5926,VALID,60,VALID,0.630859,
2009-09-08, 00:38:04,VALID,1001.45,VALID,0,VALID,90.8383,VALID,0,VALID,22.5714,VALID,60,VALID,0.596094,
2009-09-08, 00:39:04,VALID,1001.44,VALID,0,VALID,90.8917,VALID,0,VALID,22.5909,VALID,60,VALID,0.594141,
2009-09-08, 00:40:04,VALID,1001.4,VALID,0,VALID,90.9374,VALID,0,VALID,22.5909,VALID,60,VALID,0.613281,
2009-09-08, 00:41:04,VALID,1001.38,VALID,0,VALID,90.8611,VALID,0,VALID,22.6299,VALID,60,VALID,0.772266,
2009-09-08, 00:42:04,VALID,1001.38,VALID,0,VALID,90.6857,VALID,0,VALID,22.6494,VALID,60,VALID,0.980859,
2009-09-08, 00:43:04,VALID,1001.34,VALID,0,VALID,90.7238,VALID,0,VALID,22.6672,VALID,60,VALID,0.929297,
2009-09-08, 00:44:04,VALID,1001.35,VALID,0,VALID,90.7162,VALID,0,VALID,22.6867,VALID,60,VALID,0.536328,
2009-09-08, 00:45:04,VALID,1001.34,VALID,0,VALID,90.556,VALID,0,VALID,22.7062,VALID,60,VALID,0.256641,
2009-09-08, 00:46:04,VALID,1001.29,VALID,0,VALID,90.4873,VALID,0,VALID,22.7062,VALID,60,VALID,0.446875,
2009-09-08, 00:47:04,VALID,1001.3,VALID,0,VALID,90.4263,VALID,0,VALID,22.7257,VALID,60,VALID,0.197266,
2009-09-08, 00:48:04,VALID,1001.27,VALID,0,VALID,90.411,VALID,0,VALID,22.7257,VALID,60,VALID,0.328906,
2009-09-08, 00:49:04,VALID,1001.28,VALID,0,VALID,90.3652,VALID,0.112286,VALID,22.685,VALID,60,VALID,0.363281,
2009-09-08, 00:50:04,VALID,1001.24,VALID,0,VALID,90.35,VALID,0,VALID,22.7062,VALID,59,VALID,0.576563,
2009-09-08, 00:51:04,VALID,1001.24,VALID,0,VALID,90.266,VALID,0.112286,VALID,22.685,VALID,59,VALID,0.277344,
2009-09-08, 00:52:04,VALID,1001.23,VALID,0,VALID,90.3118,VALID,0,VALID,22.6867,VALID,59,VALID,0.246484,
2009-09-08, 00:53:04,VALID,1001.19,VALID,0,VALID,90.2584,VALID,0.112286,VALID,22.6867,VALID,59,VALID,0.207422,
2009-09-08, 00:54:04,VALID,1001.19,VALID,0,VALID,90.3042,VALID,0.112286,VALID,22.646,VALID,59,VALID,0.291016,
2009-09-08, 00:55:04,VALID,1001.17,VALID,0,VALID,90.3118,VALID,0,VALID,22.6477,VALID,59,VALID,0.116016,
2009-09-08, 00:56:04,VALID,1001.18,VALID,0,VALID,90.3957,VALID,0,VALID,22.6477,VALID,59,VALID,0.166797,
2009-09-08, 00:57:04,VALID,1001.18,VALID,0,VALID,90.411,VALID,0,VALID,22.6282,VALID,59,VALID,0.0496094,
2009-09-08, 00:58:04,VALID,1001.17,VALID,0,VALID,90.4949,VALID,0,VALID,22.6282,VALID,59,VALID,0.285156,
2009-09-08, 00:59:04,VALID,1001.15,VALID,0,VALID,90.5331,VALID,0,VALID,22.6282,VALID,59,VALID,0.246094,
2009-09-08, 01:00:04,VALID,1001.14,VALID,0,VALID,90.5636,VALID,0,VALID,22.6282,VALID,59,VALID,0.0875,
2009-09-08, 01:01:04,VALID,1001.14,VALID,0,VALID,90.6475,VALID,0,VALID,22.6282,VALID,59,VALID,0.221094,
2009-09-08, 01:02:04,VALID,1001.13,VALID,0,VALID,90.4797,VALID,0.112286,VALID,22.6282,VALID,59,VALID,0.197266,
2009-09-08, 01:03:04,VALID,1001.14,VALID,0,VALID,90.4949,VALID,0,VALID,22.5892,VALID,59,VALID,0.140625,
2009-09-08, 01:04:04,VALID,1001.13,VALID,0,VALID,90.6094,VALID,0,VALID,22.6087,VALID,59,VALID,0,
2009-09-08, 01:05:04,VALID,1001.15,VALID,0,VALID,90.617,VALID,0,VALID,22.5892,VALID,59,VALID,0,
2009-09-08, 01:06:04,VALID,1001.15,VALID,0,VALID,90.5865,VALID,0,VALID,22.5696,VALID,59,VALID,0.158203,
2009-09-08, 01:07:04,VALID,1001.14,VALID,0,VALID,90.6628,VALID,0,VALID,22.5696,VALID,59,VALID,0.200781,
2009-09-08, 01:08:04,VALID,1001.15,VALID,0,VALID,90.7467,VALID,0,VALID,22.5501,VALID,59,VALID,0.0191406,
2009-09-08, 01:09:04,VALID,1001.14,VALID,0,VALID,90.8306,VALID,0,VALID,22.5696,VALID,59,VALID,0,
2009-09-08, 01:10:04,VALID,1001.13,VALID,0,VALID,90.8459,VALID,0,VALID,22.5696,VALID,59,VALID,0,
2009-09-08, 01:11:04,VALID,1001.1,VALID,0,VALID,90.8535,VALID,0,VALID,22.5696,VALID,59,VALID,0,
2009-09-08, 01:12:04,VALID,1001.11,VALID,0,VALID,90.823,VALID,0,VALID,22.5501,VALID,59,VALID,0,
2009-09-08, 01:13:04,VALID,1001.08,VALID,0,VALID,90.7162,VALID,0,VALID,22.5696,VALID,59,VALID,0.00585938,
2009-09-08, 01:14:04,VALID,1001.06,VALID,0,VALID,90.7696,VALID,0,VALID,22.5306,VALID,59,VALID,0,
2009-09-08, 01:15:04,VALID,1001.07,VALID,0,VALID,90.9298,VALID,0,VALID,22.5306,VALID,59,VALID,0,
2009-09-08, 01:16:04,VALID,1001.03,VALID,0,VALID,90.9374,VALID,0,VALID,22.5501,VALID,59,VALID,0,
2009-09-08, 01:17:04,VALID,1001.03,VALID,0,VALID,90.884,VALID,0,VALID,22.5501,VALID,59,VALID,0,
2009-09-08, 01:18:04,VALID,1001.01,VALID,0,VALID,90.8688,VALID,0,VALID,22.5306,VALID,59,VALID,0,
2009-09-08, 01:19:04,VALID,1001.03,VALID,0,VALID,90.9603,VALID,0,VALID,22.5306,VALID,59,VALID,0.353125,
2009-09-08, 01:20:04,VALID,1001.06,VALID,0,VALID,91.0671,VALID,0,VALID,22.5306,VALID,59,VALID,0.135547,
2009-09-08, 01:21:04,VALID,1001.03,VALID,0,VALID,91.1053,VALID,0,VALID,22.5306,VALID,59,VALID,0.114844,
2009-09-08, 01:22:04,VALID,1001.03,VALID,0,VALID,91.1129,VALID,0,VALID,22.5501,VALID,59,VALID,0,
2009-09-08, 01:23:04,VALID,1001.07,VALID,0,VALID,91.0137,VALID,0,VALID,22.5501,VALID,59,VALID,0.00078125,
2009-09-08, 01:24:04,VALID,1001.04,VALID,0,VALID,91.09,VALID,0,VALID,22.5696,VALID,59,VALID,0.440234,
2009-09-08, 01:25:04,VALID,1001.04,VALID,0,VALID,90.9832,VALID,0.112286,VALID,22.5892,VALID,42,VALID,0.641797,
2009-09-08, 01:26:04,VALID,1001.01,VALID,0,VALID,90.7849,VALID,0,VALID,22.5696,VALID,42,VALID,0.533594,
2009-09-08, 01:27:04,VALID,1000.99,VALID,0,VALID,90.6857,VALID,0,VALID,22.5892,VALID,42,VALID,0.703516,
2009-09-08, 01:28:04,VALID,1000.99,VALID,0,VALID,90.5331,VALID,0,VALID,22.5892,VALID,42,VALID,0.750391,
2009-09-08, 01:29:04,VALID,1000.99,VALID,0,VALID,90.4491,VALID,0,VALID,22.5696,VALID,42,VALID,0.669141,
2009-09-08, 01:30:04,VALID,1000.99,VALID,0,VALID,90.2355,VALID,0,VALID,22.5306,VALID,42,VALID,0.8125,
2009-09-08, 01:31:04,VALID,1000.98,VALID,0,VALID,90.7391,VALID,0,VALID,22.5306,VALID,42,VALID,0.961719,
2009-09-08, 01:32:04,VALID,1000.97,VALID,0,VALID,90.8001,VALID,0,VALID,22.5289,VALID,42,VALID,1.12422,
2009-09-08, 01:33:04,VALID,1001.01,VALID,0,VALID,90.3194,VALID,0,VALID,22.4899,VALID,42,VALID,1.04688,
2009-09-08, 01:34:04,VALID,1001.04,VALID,0,VALID,90.2508,VALID,0,VALID,22.4331,VALID,42,VALID,0.916016,
2009-09-08, 01:35:04,VALID,1001.01,VALID,0,VALID,90.3576,VALID,0,VALID,22.3941,VALID,42,VALID,0.964844,
2009-09-08, 01:36:04,VALID,1001.04,VALID,0,VALID,90.4263,VALID,0,VALID,22.3356,VALID,41,VALID,0.906641,
2009-09-08, 01:37:04,VALID,1001.03,VALID,0,VALID,90.5712,VALID,0,VALID,22.2966,VALID,41,VALID,0.835156,
2009-09-08, 01:38:04,VALID,1001.07,VALID,0,VALID,90.9146,VALID,0,VALID,22.2771,VALID,40,VALID,0.856641,
2009-09-08, 01:39:04,VALID,1001.07,VALID,0,VALID,90.8993,VALID,0,VALID,22.2559,VALID,39,VALID,0.683984,
2009-09-08, 01:40:04,VALID,1001.05,VALID,0,VALID,90.8764,VALID,0,VALID,22.2381,VALID,33,VALID,0.912109,
2009-09-08, 01:41:04,VALID,1001.05,VALID,0,VALID,91.09,VALID,0,VALID,22.2186,VALID,30,VALID,1.20391,
2009-09-08, 01:42:04,VALID,1001.08,VALID,0,VALID,91.0671,VALID,0,VALID,22.199,VALID,29,VALID,0.692969,
2009-09-08, 01:43:04,VALID,1001.11,VALID,0,VALID,91.1053,VALID,0,VALID,22.16,VALID,29,VALID,0.8375,
2009-09-08, 01:44:04,VALID,1001.08,VALID,0,VALID,91.3189,VALID,0,VALID,22.1405,VALID,31,VALID,0.98125,
2009-09-08, 01:45:04,VALID,1001.08,VALID,0,VALID,91.2121,VALID,0,VALID,22.1405,VALID,36,VALID,1.36563,
2009-09-08, 01:46:04,VALID,1001.09,VALID,0,VALID,91.029,VALID,0,VALID,22.082,VALID,41,VALID,0.971875,
2009-09-08, 01:47:04,VALID,1001.11,VALID,0,VALID,90.8688,VALID,0,VALID,22.043,VALID,44,VALID,0.884375,
2009-09-08, 01:48:04,VALID,1001.12,VALID,0,VALID,91.1816,VALID,0.112286,VALID,22.0413,VALID,43,VALID,1.10742,
2009-09-08, 01:49:04,VALID,1001.09,VALID,0,VALID,91.4486,VALID,0,VALID,22.0625,VALID,39,VALID,1.33203,
2009-09-08, 01:50:04,VALID,1001.1,VALID,0,VALID,91.4105,VALID,0.112286,VALID,22.0608,VALID,39,VALID,1.15547,
2009-09-08, 01:51:04,VALID,1001.11,VALID,0,VALID,91.502,VALID,0,VALID,22.082,VALID,35,VALID,1.11719,
2009-09-08, 01:52:04,VALID,1001.09,VALID,0,VALID,91.5402,VALID,0,VALID,22.1015,VALID,33,VALID,0.908594,
2009-09-08, 01:53:04,VALID,1001.08,VALID,0,VALID,91.4563,VALID,0.112286,VALID,22.1405,VALID,9,VALID,0.6875,
2009-09-08, 01:54:04,VALID,1001.1,VALID,0,VALID,91.2503,VALID,0,VALID,22.121,VALID,31,VALID,0.565234,
2009-09-08, 01:55:04,VALID,1001.1,VALID,0,VALID,91.1892,VALID,0,VALID,22.1015,VALID,35,VALID,0.537891,
2009-09-08, 01:56:04,VALID,1001.07,VALID,0,VALID,91.1587,VALID,0,VALID,22.082,VALID,62,VALID,0.928516,
2009-09-08, 01:57:04,VALID,1001.08,VALID,0,VALID,91.0061,VALID,0,VALID,22.0625,VALID,64,VALID,1.00469,
2009-09-08, 01:58:04,VALID,1001.09,VALID,0,VALID,91.3266,VALID,0,VALID,22.0837,VALID,67,VALID,1.2293,
2009-09-08, 01:59:04,VALID,1001.08,VALID,0,VALID,91.1587,VALID,0,VALID,22.0837,VALID,67,VALID,1.20156,
2009-09-08, 02:00:04,VALID,1001.12,VALID,0,VALID,90.9146,VALID,0,VALID,22.0642,VALID,67,VALID,0.964453,
2009-09-08, 02:01:04,VALID,1001.1,VALID,0,VALID,90.7543,VALID,0,VALID,22.0057,VALID,69,VALID,0.521094,
2009-09-08, 02:02:04,VALID,1001.12,VALID,0,VALID,90.7314,VALID,0,VALID,21.9472,VALID,72,VALID,0.565625,
2009-09-08, 02:03:04,VALID,1001.14,VALID,0,VALID,91.5402,VALID,0,VALID,21.9667,VALID,73,VALID,0.841797,
2009-09-08, 02:04:04,VALID,1001.12,VALID,0,VALID,91.4181,VALID,0,VALID,21.9862,VALID,73,VALID,0.861719,
2009-09-08, 02:05:04,VALID,1001.14,VALID,0,VALID,91.2121,VALID,0,VALID,21.9667,VALID,74,VALID,0.950781,
2009-09-08, 02:06:04,VALID,1001.15,VALID,0,VALID,91.4105,VALID,0,VALID,21.9667,VALID,72,VALID,1.06641,
2009-09-08, 02:07:04,VALID,1001.17,VALID,0,VALID,91.09,VALID,0,VALID,21.9472,VALID,73,VALID,0.557031,
2009-09-08, 02:08:04,VALID,1001.17,VALID,0,VALID,91.09,VALID,0,VALID,21.8887,VALID,75,VALID,0.658984,
2009-09-08, 02:09:04,VALID,1001.17,VALID,0,VALID,91.174,VALID,0,VALID,21.8692,VALID,75,VALID,0.652734,
2009-09-08, 02:10:04,VALID,1001.16,VALID,0,VALID,91.4791,VALID,0,VALID,21.8692,VALID,75,VALID,0.867578,
2009-09-08, 02:11:04,VALID,1001.16,VALID,0,VALID,91.6623,VALID,0,VALID,21.8887,VALID,75,VALID,0.848047,
2009-09-08, 02:12:04,VALID,1001.16,VALID,0,VALID,91.6088,VALID,0,VALID,21.9082,VALID,75,VALID,0.785156,
2009-09-08, 02:13:04,VALID,1001.15,VALID,0,VALID,91.5631,VALID,0,VALID,21.9065,VALID,75,VALID,0.676562,
2009-09-08, 02:14:04,VALID,1001.14,VALID,0,VALID,91.708,VALID,0.112286,VALID,21.9065,VALID,75,VALID,0.670703,
2009-09-08, 02:15:04,VALID,1001.13,VALID,0,VALID,91.7538,VALID,0,VALID,21.9048,VALID,75,VALID,0.558984,
2009-09-08, 02:16:04,VALID,1001.12,VALID,0,VALID,91.4257,VALID,0,VALID,21.9048,VALID,74,VALID,0.6,
2009-09-08, 02:17:04,VALID,1001.11,VALID,0,VALID,91.647,VALID,0,VALID,21.926,VALID,70,VALID,0.594922,
2009-09-08, 02:18:04,VALID,1001.1,VALID,0,VALID,91.6165,VALID,0,VALID,21.965,VALID,66,VALID,0.601172,
2009-09-08, 02:19:04,VALID,1001.08,VALID,0,VALID,91.5097,VALID,0,VALID,21.965,VALID,42,VALID,0.670313,
2009-09-08, 02:20:04,VALID,1001.08,VALID,0,VALID,91.5173,VALID,0,VALID,21.9845,VALID,42,VALID,0.532031,
2009-09-08, 02:21:04,VALID,1001.04,VALID,0,VALID,91.4868,VALID,0,VALID,21.9845,VALID,42,VALID,0.657422,
2009-09-08, 02:22:04,VALID,1001.02,VALID,0,VALID,91.4028,VALID,0,VALID,21.965,VALID,42,VALID,0.707812,
2009-09-08, 02:23:04,VALID,1001.01,VALID,0,VALID,91.235,VALID,0,VALID,21.926,VALID,42,VALID,0.671875,
2009-09-08, 02:24:04,VALID,1000.98,VALID,0,VALID,91.3189,VALID,0,VALID,21.887,VALID,42,VALID,0.480078,
2009-09-08, 02:25:04,VALID,1000.97,VALID,0,VALID,91.3266,VALID,0,VALID,21.887,VALID,42,VALID,0.519531,
2009-09-08, 02:26:04,VALID,1000.97,VALID,0,VALID,91.0595,VALID,0,VALID,21.809,VALID,42,VALID,0.582031,
2009-09-08, 02:27:04,VALID,1000.95,VALID,0,VALID,91.2274,VALID,0,VALID,21.7505,VALID,42,VALID,0.665234,
2009-09-08, 02:28:04,VALID,1000.97,VALID,0,VALID,91.4639,VALID,0,VALID,21.7505,VALID,53,VALID,0.645703,
2009-09-08, 02:29:04,VALID,1000.94,VALID,0,VALID,91.8225,VALID,0,VALID,21.731,VALID,56,VALID,0.740625,
2009-09-08, 02:30:04,VALID,1000.95,VALID,0,VALID,91.8606,VALID,0,VALID,21.7505,VALID,74,VALID,0.826172,
2009-09-08, 02:31:04,VALID,1000.93,VALID,0,VALID,91.6546,VALID,0,VALID,21.7505,VALID,77,VALID,0.730469,
2009-09-08, 02:32:04,VALID,1000.93,VALID,0,VALID,91.8225,VALID,0,VALID,21.731,VALID,77,VALID,0.570313,
2009-09-08, 02:33:04,VALID,1000.96,VALID,0,VALID,91.914,VALID,0,VALID,21.731,VALID,77,VALID,0.571484,
2009-09-08, 02:34:04,VALID,1000.92,VALID,0,VALID,91.8454,VALID,0,VALID,21.7505,VALID,77,VALID,0.421094,
2009-09-08, 02:35:04,VALID,1000.9,VALID,0,VALID,91.6851,VALID,0,VALID,21.731,VALID,77,VALID,0.546094,
2009-09-08, 02:36:04,VALID,1000.88,VALID,0,VALID,91.8835,VALID,0,VALID,21.7505,VALID,77,VALID,0.478125,
2009-09-08, 02:37:04,VALID,1000.92,VALID,0,VALID,91.8683,VALID,0,VALID,21.7505,VALID,77,VALID,0.369922,
2009-09-08, 02:38:04,VALID,1000.91,VALID,0,VALID,91.6928,VALID,0,VALID,21.7505,VALID,77,VALID,0.255469,
2009-09-08, 02:39:04,VALID,1000.89,VALID,0,VALID,91.647,VALID,0.112286,VALID,21.731,VALID,77,VALID,0.422266,
2009-09-08, 02:40:04,VALID,1000.87,VALID,0,VALID,91.6317,VALID,0,VALID,21.6903,VALID,77,VALID,0.525781,
2009-09-08, 02:41:04,VALID,1000.88,VALID,0,VALID,91.6317,VALID,0,VALID,21.7131,VALID,103,VALID,0.559375,
2009-09-08, 02:42:04,VALID,1000.86,VALID,0,VALID,91.7462,VALID,0,VALID,21.6725,VALID,104,VALID,0.721484,
2009-09-08, 02:43:04,VALID,1000.85,VALID,0,VALID,92.0132,VALID,0,VALID,21.692,VALID,104,VALID,0.466016,
2009-09-08, 02:44:04,VALID,1000.81,VALID,0,VALID,91.8606,VALID,0,VALID,21.692,VALID,104,VALID,0.256641,
2009-09-08, 02:45:04,VALID,1000.83,VALID,0,VALID,91.7462,VALID,0,VALID,21.692,VALID,104,VALID,0.232031,
2009-09-08, 02:46:04,VALID,1000.8,VALID,0,VALID,91.6775,VALID,0,VALID,21.653,VALID,104,VALID,0.253125,
2009-09-08, 02:47:04,VALID,1000.82,VALID,0,VALID,91.914,VALID,0,VALID,21.6725,VALID,104,VALID,0.285937,
2009-09-08, 02:48:04,VALID,1000.77,VALID,0,VALID,92.0132,VALID,0,VALID,21.692,VALID,104,VALID,0.143359,
2009-09-08, 02:49:04,VALID,1000.78,VALID,0,VALID,92.0132,VALID,0,VALID,21.692,VALID,104,VALID,0.185547,
2009-09-08, 02:50:04,VALID,1000.77,VALID,0,VALID,91.9827,VALID,0,VALID,21.7326,VALID,104,VALID,0.166797,
2009-09-08, 02:51:04,VALID,1000.73,VALID,0,VALID,91.8759,VALID,0,VALID,21.692,VALID,104,VALID,0,
2009-09-08, 02:52:04,VALID,1000.72,VALID,0,VALID,91.6851,VALID,0,VALID,21.6936,VALID,104,VALID,0.0851562,
2009-09-08, 02:53:04,VALID,1000.69,VALID,0,VALID,91.8377,VALID,0,VALID,21.6335,VALID,104,VALID,0.482031,
2009-09-08, 02:54:04,VALID,1000.67,VALID,0,VALID,92.1429,VALID,0,VALID,21.653,VALID,115,VALID,0.769141,
2009-09-08, 02:55:04,VALID,1000.66,VALID,0,VALID,92.3337,VALID,0,VALID,21.7115,VALID,106,VALID,0.762109,
2009-09-08, 02:56:04,VALID,1000.61,VALID,0,VALID,92.4023,VALID,0.112286,VALID,21.77,VALID,105,VALID,0.685547,
2009-09-08, 02:57:04,VALID,1000.58,VALID,0,VALID,92.0437,VALID,0,VALID,21.7895,VALID,105,VALID,0.532812,
2009-09-08, 02:58:04,VALID,1000.6,VALID,0,VALID,92.0895,VALID,0,VALID,21.8301,VALID,105,VALID,0.507813,
2009-09-08, 02:59:04,VALID,1000.56,VALID,0,VALID,92.1124,VALID,0,VALID,21.8513,VALID,105,VALID,0.564062,
2009-09-08, 03:00:04,VALID,1000.57,VALID,0,VALID,91.8988,VALID,0,VALID,21.8496,VALID,105,VALID,0.531641,
2009-09-08, 03:01:04,VALID,1000.59,VALID,0,VALID,91.8759,VALID,0,VALID,21.8496,VALID,105,VALID,0.547656,
2009-09-08, 03:02:04,VALID,1000.58,VALID,0,VALID,91.853,VALID,0,VALID,21.8496,VALID,94,VALID,0.501172,
2009-09-08, 03:03:04,VALID,1000.59,VALID,0,VALID,91.4791,VALID,0,VALID,21.8301,VALID,94,VALID,0.240625,
2009-09-08, 03:04:04,VALID,1000.58,VALID,0,VALID,91.5249,VALID,0,VALID,21.8106,VALID,92,VALID,0.448047,
2009-09-08, 03:05:04,VALID,1000.6,VALID,0,VALID,91.3113,VALID,0,VALID,21.7911,VALID,92,VALID,0.721875,
2009-09-08, 03:06:04,VALID,1000.6,VALID,0,VALID,91.1434,VALID,0,VALID,21.8301,VALID,101,VALID,0.903906,
2009-09-08, 03:07:04,VALID,1000.61,VALID,0,VALID,90.9451,VALID,0,VALID,21.8496,VALID,96,VALID,0.577734,
2009-09-08, 03:08:04,VALID,1000.59,VALID,0,VALID,91.09,VALID,0,VALID,21.8496,VALID,66,VALID,0.585156,
2009-09-08, 03:09:04,VALID,1000.61,VALID,0,VALID,91.4791,VALID,0,VALID,21.9082,VALID,62,VALID,0.552734,
2009-09-08, 03:10:04,VALID,1000.6,VALID,0,VALID,91.1434,VALID,0,VALID,21.9472,VALID,62,VALID,0.615234,
2009-09-08, 03:11:04,VALID,1000.6,VALID,0,VALID,91.1892,VALID,0,VALID,21.9472,VALID,62,VALID,0.587891,
2009-09-08, 03:12:04,VALID,1000.61,VALID,0,VALID,91.0214,VALID,0,VALID,21.9472,VALID,61,VALID,0.55,
2009-09-08, 03:13:04,VALID,1000.62,VALID,0,VALID,91.0137,VALID,0,VALID,21.9455,VALID,61,VALID,0.449609,
2009-09-08, 03:14:04,VALID,1000.63,VALID,0,VALID,90.6399,VALID,0,VALID,21.9472,VALID,61,VALID,0.420703,
2009-09-08, 03:15:04,VALID,1000.64,VALID,0,VALID,90.5026,VALID,0,VALID,21.926,VALID,61,VALID,0.483594,
2009-09-08, 03:16:04,VALID,1000.68,VALID,0,VALID,90.2889,VALID,0,VALID,21.887,VALID,43,VALID,0.564062,
2009-09-08, 03:17:04,VALID,1000.64,VALID,0,VALID,90.3423,VALID,0.112286,VALID,21.848,VALID,19,VALID,0.613281,
2009-09-08, 03:18:04,VALID,1000.65,VALID,0,VALID,89.7549,VALID,0,VALID,21.77,VALID,17,VALID,0.676953,
2009-09-08, 03:19:04,VALID,1000.62,VALID,0,VALID,90.3042,VALID,0,VALID,21.692,VALID,16,VALID,0.840234,
2009-09-08, 03:20:04,VALID,1000.62,VALID,0,VALID,90.3728,VALID,0,VALID,21.6725,VALID,16,VALID,0.556641,
2009-09-08, 03:21:04,VALID,1000.6,VALID,0,VALID,90.472,VALID,0,VALID,21.6351,VALID,16,VALID,0.677344,
2009-09-08, 03:22:04,VALID,1000.58,VALID,0,VALID,90.7162,VALID,0,VALID,21.6335,VALID,14,VALID,0.762891,
2009-09-08, 03:23:04,VALID,1000.59,VALID,0,VALID,90.7238,VALID,0,VALID,21.614,VALID,14,VALID,0.422656,
2009-09-08, 03:24:04,VALID,1000.6,VALID,0,VALID,90.968,VALID,0,VALID,21.5945,VALID,14,VALID,0.421094,
2009-09-08, 03:25:04,VALID,1000.6,VALID,0,VALID,91.0061,VALID,0,VALID,21.614,VALID,14,VALID,0.489844,
2009-09-08, 03:26:04,VALID,1000.62,VALID,0,VALID,91.0137,VALID,0,VALID,21.6351,VALID,16,VALID,0.427734,
2009-09-08, 03:27:04,VALID,1000.61,VALID,0,VALID,90.8077,VALID,0,VALID,21.5945,VALID,16,VALID,0.615625,
2009-09-08, 03:28:04,VALID,1000.66,VALID,0,VALID,91.0214,VALID,0,VALID,21.5961,VALID,16,VALID,0.814453,
2009-09-08, 03:29:04,VALID,1000.68,VALID,0,VALID,91.2197,VALID,0,VALID,21.6335,VALID,24,VALID,0.933203,
2009-09-08, 03:30:04,VALID,1000.66,VALID,0,VALID,90.9298,VALID,0,VALID,21.6725,VALID,44,VALID,0.874609,
2009-09-08, 03:31:04,VALID,1000.67,VALID,0,VALID,90.617,VALID,0,VALID,21.731,VALID,36,VALID,0.875781,
2009-09-08, 03:32:04,VALID,1000.67,VALID,0,VALID,90.2889,VALID,0,VALID,21.77,VALID,36,VALID,0.75625,
2009-09-08, 03:33:04,VALID,1000.65,VALID,0,VALID,89.8998,VALID,0,VALID,21.7895,VALID,38,VALID,0.673047,
2009-09-08, 03:34:04,VALID,1000.66,VALID,0,VALID,89.8006,VALID,0,VALID,21.7895,VALID,38,VALID,0.499609,
2009-09-08, 03:35:04,VALID,1000.65,VALID,0,VALID,89.8235,VALID,0,VALID,21.77,VALID,38,VALID,0.484766,
2009-09-08, 03:36:04,VALID,1000.65,VALID,0,VALID,89.8998,VALID,0,VALID,21.7911,VALID,38,VALID,0.508203,
2009-09-08, 03:37:04,VALID,1000.65,VALID,0,VALID,89.8464,VALID,0,VALID,21.7911,VALID,38,VALID,0.392188,
2009-09-08, 03:38:04,VALID,1000.65,VALID,0,VALID,89.854,VALID,0,VALID,21.731,VALID,38,VALID,0.244531,
2009-09-08, 03:39:04,VALID,1000.66,VALID,0,VALID,89.8311,VALID,0,VALID,21.7115,VALID,38,VALID,0.383203,
2009-09-08, 03:40:04,VALID,1000.67,VALID,0,VALID,89.7777,VALID,0,VALID,21.6741,VALID,38,VALID,0.251172,
2009-09-08, 03:41:04,VALID,1000.67,VALID,0,VALID,90.1516,VALID,0,VALID,21.6741,VALID,38,VALID,0.41875,
2009-09-08, 03:42:04,VALID,1000.7,VALID,0,VALID,89.9532,VALID,0,VALID,21.614,VALID,4,VALID,0.580859,
2009-09-08, 03:43:04,VALID,1000.7,VALID,0,VALID,89.793,VALID,0,VALID,21.5766,VALID,356,VALID,0.765625,
2009-09-08, 03:44:04,VALID,1000.71,VALID,0,VALID,90.1516,VALID,0,VALID,21.5766,VALID,355,VALID,0.684375,
2009-09-08, 03:45:04,VALID,1000.75,VALID,0,VALID,90.1668,VALID,0,VALID,21.5571,VALID,353,VALID,0.496875,
2009-09-08, 03:46:04,VALID,1000.79,VALID,0,VALID,90.3576,VALID,0,VALID,21.536,VALID,353,VALID,0.423047,